User: anonymous   Login
Location: Unspecified
(0.0000°N, 0.0000°E)
Time: 19:06:40
(UTC+01:00)
Language:

Resurs 01 Rocket - Orbit

View from above orbital plane
View from above orbital plane
View from above satellite
View from above satellite

Ground track
Ground track

The orbit data is extracted from the following two-line orbital elements,

1 23343U 94074B   16342.86063228  .00000004  00000-0  82388-5 0  9998
2 23343  98.1771  11.7874 0006291 336.6200 129.0387 14.76682691188597
Epoch (UTC): 07 December 2016 20:39:18
Eccentricity: 0.0006291
inclination: 98.1771°
perigee height: 635 km
apogee height: 644 km
right ascension of ascending node: 11.7874°
argument of perigee: 336.6200°
revolutions per day: 14.76682691
mean anomaly at epoch: 129.0387°
orbit number at epoch: 18859

The dashed part of the orbit path shows where the satellite is in the earth's shadow,  

DLR